Weather History for Asheville, NC

Change the Weather History Date:

Monday, February 7, 2011

  Actual Average Record
Temperature  
Mean Temperature 36 °F 39 °F  
Max Temperature 46 °F 50 °F 71 °F (1925)
Min Temperature 25 °F 28 °F -4 °F (1895)
Degree Days  
Heating Degree Days 29 26  
Month to date heating degree days 188 186  
Since 1 July heating degree days 3036 2713  
Cooling Degree Days 0 0  
Month to date cooling degree days 0 0  
Year to date cooling degree days 0 0  
Moisture  
Dew Point 28 °F    
Average Humidity 69    
Maximum Humidity 92    
Minimum Humidity 45    
Precipitation  
Precipitation T in 0.13 in 3.00 in (1873)
Month to date precipitation 1.94 0.93  
Year to date precipitation 4.06 4.60  
Snow  
Snow 0.00 in 0.10 in 6.20 in (1922)
Month to date snowfall 0.0 0.7  
Since 1 July snowfall 20.2 5.8  
Snow Depth 0.00 in    
Sea Level Pressure  
Sea Level Pressure 29.87 in    
Wind  
Wind Speed 4 mph (South)    
Max Wind Speed 16 mph    
Max Gust Speed 22 mph    
Visibility 10 miles    
Events      
T = Trace of Precipitation, MM = Missing Value Source: NWS Daily Summary

Daily Weather History Graph

Daily Weather History Graph

Search for Another Location

Airport:

Trip Planner

Search our weather history database for the weather conditions in past years. The results will help you decide how hot, cold, wet, or windy it might be!

Date:

Astronomy

Feb. 07, 2011 Rise Set
Actual Time 7:24 AM EST 6:04 PM EST
Civil Twilight 6:58 AM EST 6:30 PM EST
Nautical Twilight 6:28 AM EST 7:00 PM EST
Astronomical Twilight 5:58 AM EST 7:30 PM EST
Moon 9:18 AM EST (2/7) 10:31 PM EST (2/7)
Length of Visible Light 11h 32m
Length of Day
10h 39m
Waxing Crescent, 18% of the Moon is Illuminated
Feb 7
Waxing Crescent
Feb 11
First Quarter
Feb 18
Full
Feb 24
Last Quarter
Mar 4
New

Hourly Weather History & Observations

Time (EST) Temp. Windchill Dew Point Humidity Pressure Visibility Wind Dir Wind Speed Gust Speed Precip Events Conditions
12:54 AM 28.9 °F - 25.0 °F 85% 30.03 in 10.0 mi Calm Calm - N/A   Clear
1:54 AM 28.0 °F - 25.0 °F 88% 30.02 in 10.0 mi Calm Calm - N/A   Clear
2:54 AM 28.0 °F - 24.1 °F 85% 30.00 in 10.0 mi Calm Calm - N/A   Clear
3:54 AM 27.0 °F - 24.1 °F 89% 29.99 in 10.0 mi Calm Calm - N/A   Clear
4:54 AM 26.6 °F - 23.0 °F 86% 29.98 in 10.0 mi Calm Calm - N/A   Clear
5:54 AM 26.1 °F - 24.1 °F 92% 29.99 in 10.0 mi Calm Calm - N/A   Clear
6:54 AM 26.1 °F - 23.0 °F 88% 29.99 in 10.0 mi Calm Calm - N/A   Clear
7:54 AM 26.1 °F - 24.1 °F 92% 29.99 in 9.0 mi Calm Calm - N/A   Clear
8:54 AM 28.0 °F - 25.0 °F 88% 29.97 in 10.0 mi Calm Calm - N/A   Clear
9:54 AM 30.0 °F - 27.0 °F 88% 29.99 in 10.0 mi Calm Calm - N/A   Clear
10:54 AM 32.0 °F 26.4 °F 28.9 °F 88% 29.95 in 10.0 mi SE 5.8 mph - N/A   Clear
11:54 AM 35.1 °F - 30.9 °F 85% 29.90 in 10.0 mi Calm Calm - N/A   Clear
12:54 PM 39.0 °F 35.7 °F 32.0 °F 76% 29.85 in 10.0 mi South 4.6 mph - N/A   Clear
1:54 PM 42.1 °F 36.1 °F 33.1 °F 70% 29.81 in 10.0 mi SSE 10.4 mph - N/A   Clear
2:54 PM 45.0 °F 40.1 °F 30.9 °F 58% 29.76 in 10.0 mi South 9.2 mph - N/A   Clear
3:54 PM 45.0 °F 38.9 °F 28.9 °F 53% 29.75 in 10.0 mi South 12.7 mph - N/A   Clear
4:54 PM 45.0 °F 39.7 °F 25.0 °F 46% 29.74 in 10.0 mi SSW 10.4 mph - N/A   Scattered Clouds
5:54 PM 42.1 °F 36.6 °F 26.1 °F 53% 29.74 in 10.0 mi South 9.2 mph - N/A   Scattered Clouds
6:54 PM 41.0 °F 36.4 °F 27.0 °F 57% 29.74 in 10.0 mi South 6.9 mph - N/A   Overcast
7:54 PM 37.9 °F 32.7 °F 30.9 °F 76% 29.76 in 10.0 mi South 6.9 mph 16.1 mph 0.00 in   Overcast
8:54 PM 37.0 °F 33.3 °F 30.9 °F 79% 29.75 in 10.0 mi SSE 4.6 mph - N/A   Scattered Clouds
9:54 PM 36.0 °F 33.3 °F 30.9 °F 82% 29.75 in 10.0 mi South 3.5 mph - N/A   Partly Cloudy
10:54 PM 36.0 °F - 32.0 °F 86% 29.77 in 10.0 mi Calm Calm - N/A   Overcast
11:54 PM 32.0 °F - 28.9 °F 88% 29.77 in 10.0 mi Calm Calm - N/A   Clear